Weather History for KNFL - January, 2014

Change the Weather History Date:

Saturday, January 11, 2014

  Actual Average Record
Temperature  
Mean Temperature 48 °F -  
Max Temperature 59 °F 42 °F 69 °F (1953)
Min Temperature 36 °F 19 °F -9 °F (1937)
Degree Days  
Heating Degree Days 18    
Moisture  
Dew Point 29 °F    
Average Humidity 51    
Maximum Humidity 73    
Minimum Humidity 33    
Precipitation  
Precipitation 0.00 in - - ()
Sea Level Pressure  
Sea Level Pressure 29.97 in    
Wind  
Wind Speed 11 mph (SW)    
Max Wind Speed 21 mph    
Max Gust Speed 30 mph    
Visibility 10 miles    
Events      
Averages and records for this station are not official NWS values.
T = Trace of Precipitation, MM = Missing Value Source: NWS Daily Summary

Daily Weather History Graph

Daily Weather History Graph

Search for Another Location

Airport or City:

Trip Planner

Search our weather history database for the weather conditions in past years. The results will help you decide how hot, cold, wet, or windy it might be!

Date:

Astronomy

Jan. 11, 2014 Rise Set
Actual Time 7:14 AM PST 4:51 PM PST
Civil Twilight 6:44 AM PST 5:21 PM PST
Nautical Twilight 6:11 AM PST 5:54 PM PST
Astronomical Twilight 5:39 AM PST 6:26 PM PST
Moon 1:38 PM PST (1/11) 3:23 AM PST (1/11)
Length of Visible Light 10h 36m
Length of Day
9h 37m
Waxing Gibbous, 84% of the Moon is Illuminated
Jan 11
Waxing Gibbous
Jan 15
Full
Jan 23
Last Quarter
Jan 30
New
Feb 6
First Quarter

Hourly Weather History & Observations

Time (PST) Temp. Windchill Dew Point Humidity Pressure Visibility Wind Dir Wind Speed Gust Speed Precip Events Conditions
12:56 AM 37.0 °F 29.8 °F 28.0 °F 70% 30.08 in 10.0 mi SSE 10.4 mph - N/A   Clear
1:56 AM 37.0 °F 30.4 °F 28.9 °F 73% 30.06 in 10.0 mi SSE 9.2 mph - N/A   Clear
2:56 AM 37.0 °F 29.3 °F 28.9 °F 73% 30.05 in 10.0 mi SSE 11.5 mph - N/A   Clear
3:56 AM 36.0 °F 31.1 °F 28.0 °F 73% 30.04 in 10.0 mi South 5.8 mph - N/A   Clear
4:56 AM 37.9 °F 30.9 °F 28.9 °F 70% 30.02 in 10.0 mi South 10.4 mph - N/A   Clear
5:56 AM 39.9 °F 33.9 °F 28.9 °F 65% 30.00 in 10.0 mi SSE 9.2 mph - N/A   Clear
6:56 AM 39.0 °F 33.4 °F 28.9 °F 67% 29.99 in 10.0 mi SSE 8.1 mph - N/A   Clear
7:56 AM 41.0 °F 35.2 °F 30.0 °F 65% 29.98 in 10.0 mi South 9.2 mph - N/A   Clear
8:56 AM 46.0 °F 40.6 °F 30.0 °F 54% 29.99 in 10.0 mi South 11.5 mph - N/A   Mostly Cloudy
9:56 AM 48.9 °F - 32.0 °F 52% 29.98 in 10.0 mi South 4.6 mph - N/A   Mostly Cloudy
10:56 AM 54.0 °F - 28.9 °F 38% 29.97 in 10.0 mi South 13.8 mph - N/A   Overcast
11:56 AM 57.0 °F - 28.9 °F 34% 29.95 in 10.0 mi Variable 3.5 mph - N/A   Overcast
12:56 PM 59.0 °F - 30.0 °F 33% 29.92 in 9.0 mi SW 9.2 mph - N/A   Overcast
1:18 PM 59.0 °F - 30.9 °F 35% 30.00 in 9.0 mi West 16.1 mph - N/A   Overcast
1:56 PM 57.0 °F - 32.0 °F 39% 29.92 in 10.0 mi WNW 16.1 mph - N/A   Overcast
2:27 PM 57.0 °F - 30.9 °F 37% 30.00 in 3.0 mi SW 19.6 mph 25.3 mph N/A   Haze
2:56 PM 57.9 °F - 30.9 °F 36% 29.90 in 6.0 mi SW 20.7 mph - N/A   Haze
3:56 PM 55.9 °F - 30.9 °F 39% 29.88 in 10.0 mi WSW 19.6 mph 29.9 mph N/A   Mostly Cloudy
4:56 PM 51.1 °F - 30.0 °F 44% 29.89 in 10.0 mi NW 8.1 mph - N/A   Mostly Cloudy
5:56 PM 50.0 °F - 30.9 °F 48% 29.91 in 10.0 mi WNW 8.1 mph - N/A   Mostly Cloudy
6:56 PM 50.0 °F - 28.9 °F 44% 29.91 in 10.0 mi WNW 15.0 mph - N/A   Clear
7:56 PM 48.0 °F - 28.9 °F 48% 29.92 in 10.0 mi West 13.8 mph - N/A   Clear
8:56 PM 46.0 °F 39.9 °F 27.0 °F 47% 29.95 in 10.0 mi West 13.8 mph - N/A   Clear
9:56 PM 45.0 °F 38.5 °F 26.1 °F 48% 29.99 in 10.0 mi West 13.8 mph - N/A   Clear
10:56 PM 42.1 °F 36.1 °F 24.1 °F 49% 30.02 in 10.0 mi West 10.4 mph - N/A   Mostly Cloudy
11:56 PM 42.1 °F 34.5 °F 21.9 °F 45% 30.03 in 10.0 mi West 15.0 mph - N/A   Scattered Clouds